Weather History for Chambery, France

Change the Weather History Date:

Sunday, November 25, 2012

  Actual Average Record
Temperature  
Mean Temperature 47 °F -  
Max Temperature 53 °F 42 °F 71 °F (2006)
Min Temperature 41 °F 32 °F 21 °F (1998)
Degree Days  
Heating Degree Days 18    
Moisture  
Dew Point 43 °F    
Average Humidity 81    
Maximum Humidity 100    
Minimum Humidity 62    
Precipitation  
Precipitation 0.00 in - - ()
Sea Level Pressure  
Sea Level Pressure 30.08 in    
Wind  
Wind Speed 2 mph ()    
Max Wind Speed 7 mph    
Max Gust Speed -    
Visibility 5.7 miles    
Events Rain    
Averages and records for this station are not official NWS values.
T = Trace of Precipitation, MM = Missing Value Source: Averaged Metar Reports

Daily Weather History Graph

Daily Weather History Graph

Search for Another Location

Airport:

Trip Planner

Search our weather history database for the weather conditions in past years. The results will help you decide how hot, cold, wet, or windy it might be!

Date:

Astronomy

Nov. 25, 2012 Rise Set
Actual Time 7:49 AM CET 4:57 PM CET
Civil Twilight 7:16 AM CET 5:30 PM CET
Nautical Twilight 6:39 AM CET 6:07 PM CET
Astronomical Twilight 6:04 AM CET 6:42 PM CET
Moon 3:10 PM CET (11/25) 4:41 AM CET (11/25)
Length of Visible Light 10h 13m
Length of Day
9h 07m
Waxing Gibbous, 91% of the Moon is Illuminated
Nov 25
Waxing Gibbous
Nov 28
Full
Dec 6
Last Quarter
Dec 13
New
Dec 20
First Quarter

Hourly Weather History & Observations

Time (CET) Temp. Windchill Dew Point Humidity Pressure Visibility Wind Dir Wind Speed Gust Speed Precip Events Conditions
12:00 AM 42.8 °F 41.1 °F 41.0 °F 93% 30.09 in 4.3 mi Variable 3.5 mph - N/A   Unknown
12:30 AM 41.0 °F - 39.2 °F 93% 30.09 in 3.7 mi Calm Calm - N/A   Unknown
1:00 AM 41.0 °F - 37.4 °F 87% 30.09 in 3.7 mi Variable 2.3 mph - N/A   Unknown
1:30 AM 41.0 °F - 39.2 °F 93% 30.09 in 5.0 mi Calm Calm - N/A   Unknown
2:00 AM 41.0 °F 39.0 °F 39.2 °F 93% 30.09 in 3.7 mi South 3.5 mph - N/A   Unknown
2:30 AM 41.0 °F - 41.0 °F 100% 30.12 in 5.0 mi Variable 2.3 mph - N/A   Overcast
3:00 AM 42.8 °F - 41.0 °F 93% 30.12 in 4.3 mi SE 1.2 mph - N/A   Unknown
3:30 AM 42.8 °F - 41.0 °F 93% 30.09 in 6.2 mi West 1.2 mph - N/A   Unknown
4:00 AM 44.6 °F - 42.8 °F 93% 30.09 in 6.2 mi Variable 2.3 mph - N/A   Overcast
4:30 AM 44.6 °F - 42.8 °F 93% 30.09 in 6.2 mi Calm Calm - N/A   Overcast
5:00 AM 46.4 °F - 42.8 °F 87% 30.09 in 6.2 mi Calm Calm - N/A   Overcast
5:30 AM 46.4 °F - 42.8 °F 87% 30.09 in 6.2 mi Variable 1.2 mph - N/A   Overcast
6:00 AM 46.4 °F 43.5 °F 42.8 °F 87% 30.09 in 6.2 mi South 5.8 mph - N/A   Mostly Cloudy
6:30 AM 48.2 °F - 41.0 °F 76% 30.09 in 6.2 mi ESE 3.5 mph - N/A   Mostly Cloudy
7:00 AM 51.8 °F - 41.0 °F 67% 30.09 in 6.2 mi SSW 6.9 mph - N/A   Mostly Cloudy
7:30 AM 51.8 °F - 39.2 °F 62% 30.09 in 6.2 mi Variable 5.8 mph - N/A   Mostly Cloudy
8:00 AM 51.8 °F - 41.0 °F 67% 30.09 in 6.2 mi SW 3.5 mph - N/A   Mostly Cloudy
8:30 AM 50.0 °F - 41.0 °F 71% 30.12 in 6.2 mi SSW 3.5 mph - N/A   Mostly Cloudy
9:00 AM 50.0 °F - 41.0 °F 71% 30.12 in 6.2 mi South 4.6 mph - N/A   Overcast
9:30 AM 50.0 °F - 41.0 °F 71% 30.12 in 6.2 mi South 4.6 mph - N/A   Overcast
10:00 AM 50.0 °F - 41.0 °F 71% 30.12 in 6.2 mi SE 3.5 mph - N/A   Overcast
10:30 AM 50.0 °F - 41.0 °F 71% 30.12 in 6.2 mi South 2.3 mph - N/A   Overcast
11:00 AM 50.0 °F - 41.0 °F 71% 30.12 in 6.2 mi SSE 4.6 mph - N/A   Overcast
11:30 AM 50.0 °F - 42.8 °F 76% 30.12 in 6.2 mi Calm Calm - N/A   Mostly Cloudy
12:00 PM 51.8 °F - 42.8 °F 71% 30.12 in 6.2 mi East 2.3 mph - N/A   Overcast
12:30 PM 51.8 °F - 42.8 °F 71% 30.12 in 6.2 mi ENE 3.5 mph - N/A   Overcast
1:00 PM 51.8 °F - 44.6 °F 76% 30.12 in 6.2 mi Calm Calm - N/A   Mostly Cloudy
1:30 PM 53.6 °F - 42.8 °F 67% 30.12 in 6.2 mi Calm Calm - N/A   Mostly Cloudy
2:00 PM 53.6 °F - 44.6 °F 72% 30.09 in 6.2 mi Calm Calm - N/A   Mostly Cloudy
2:30 PM 51.8 °F - 42.8 °F 71% 30.09 in 6.2 mi SW 2.3 mph - N/A   Overcast
3:00 PM 53.6 °F - 44.6 °F 72% 30.09 in 6.2 mi SSE 4.6 mph - N/A   Overcast
3:30 PM 51.8 °F - 46.4 °F 82% 30.09 in 6.2 mi SSE 3.5 mph - N/A   Mostly Cloudy
4:00 PM 51.8 °F - 44.6 °F 76% 30.06 in 6.2 mi South 6.9 mph - N/A   Mostly Cloudy
4:30 PM 53.6 °F - 44.6 °F 72% 30.06 in 6.2 mi SW 5.8 mph - N/A   Mostly Cloudy
5:00 PM 51.8 °F - 44.6 °F 76% 30.06 in 6.2 mi SSE 3.5 mph - N/A   Mostly Cloudy
5:30 PM 51.8 °F - 44.6 °F 76% 30.06 in 6.2 mi SSW 5.8 mph - N/A   Mostly Cloudy
6:00 PM 51.8 °F - 44.6 °F 76% 30.04 in 6.2 mi South 5.8 mph - N/A   Overcast
6:30 PM 50.0 °F - 44.6 °F 82% 30.06 in 6.2 mi Variable 2.3 mph - N/A   Overcast
7:00 PM 50.0 °F - 44.6 °F 82% 30.06 in 6.2 mi Variable 1.2 mph - N/A Rain Light Rain
7:30 PM 48.2 °F - 46.4 °F 93% 30.04 in 5.6 mi Variable 2.3 mph - N/A Rain Light Rain
8:00 PM 48.2 °F - 46.4 °F 93% 30.04 in 4.3 mi SSE 5.8 mph - N/A Rain Light Rain
8:30 PM 50.0 °F - 46.4 °F 87% 30.01 in 6.2 mi Variable 3.5 mph - N/A   Overcast
9:00 PM 50.0 °F - 46.4 °F 87% 30.01 in 6.2 mi SSE 5.8 mph - N/A   Unknown
9:30 PM 50.0 °F - 46.4 °F 87% 30.01 in 6.2 mi Variable 3.5 mph - N/A Rain Light Rain
10:00 PM 50.0 °F - 46.4 °F 87% 30.01 in 6.2 mi Calm Calm - N/A Rain Light Rain
10:30 PM 50.0 °F - 48.2 °F 94% 30.01 in 5.6 mi North 1.2 mph - N/A Rain Light Rain
11:00 PM 50.0 °F - 46.4 °F 87% 29.98 in 3.7 mi Calm Calm - N/A   Overcast
11:30 PM 48.2 °F - 46.4 °F 93% 29.98 in 3.1 mi West 1.2 mph - N/A   Overcast